Satellite-Ground Cal/Val Region Overpasses Predictions

Prediction of Satellite NPP Overpassing Cal/Val Region: PacN

Region Location: (Latitude: 15.00, Longitude: 179.40) to (Latitude: 23.50, Longitude: 200.60).

Table of predicted overpasses for the next 14.0 days since TLE Epoch: 5/13/2023
Interval Starting Time Starting Location Ending Time Ending Location
1 05/14/2023 13:39:05 ( 18.68, 180.00) 05/14/2023 13:39:47 ( 16.22, 179.41)
2 05/19/2023 01:14:59 ( 19.32, 179.99) 05/19/2023 01:15:40 ( 21.72, 179.40)
3 05/19/2023 13:44:00 ( 23.48, 179.59) 05/19/2023 13:44:12 ( 22.78, 179.41)
